#timestamp,LO_Frequency,Hit,StdDev 
1568005215.3,286046996.1,P
1568005235.1,286046994.5,P
1568005255.9,286046993.9,P
1568005275.7,286046992.1,Y
1568005295.5,286047002.5,P
1568005315.4,286047003.3,N
1568005335.2,286047006.6,N
1568005355.0,286047004.7,N
1568005355.9,286047004.7,N
1568005375.8,286047007.1,N
1568005395.6,286047008.3,N
1568005415.5,286047006.6,N
1568005435.3,286047006.4,N
1568005455.1,286047005.0,N
1568005475.9,286047004.9,N
1568005495.7,286047003.0,N
1568005515.5,286047004.0,N
1568005535.4,286047004.4,N
1568005555.2,286047002.8,N
1568005575.1,286047002.3,N
1568005576.0,286047002.3,N
1568005595.8,286047002.7,N
1568005615.6,286046999.7,N
1568005635.5,286047002.8,N
1568005655.3,286047003.7,N
1568005675.1,286047004.9,N
1568005695.9,286047003.5,N
1568005715.7,286047001.7,N
1568005735.6,286047000.1,N
1568005755.4,286047000.4,N
1568005775.2,286047001.4,N
1568005795.1,286046998.1,N
1568005796.0,286046998.1,N
1568005815.8,286046997.5,N
1568005835.6,286046996.2,N
1568005855.5,286046995.6,N
1568005875.3,286046997.2,N
1568005895.2,286046996.7,N
1568005915.9,286046996.8,N
1568005935.7,286046999.1,N
1568005955.6,286046997.0,N
1568005975.4,286046997.9,N
1568005995.2,286046999.3,N
1568006015.1,286046998.1,N
1568006016.0,286046998.1,N
1568006035.8,286046998.9,N
1568006055.7,286046999.6,N
1568006075.5,286046996.7,N
1568006095.3,286046997.7,N
1568006115.2,286046993.8,N
1568006135.9,286046997.4,N
1568006155.7,286046996.7,N
1568006175.6,286046996.6,N
1568006195.4,286047000.1,N
1568006215.3,286046998.1,N
1568006235.1,286047000.6,N
1568006236.0,286047000.6,N
1568006255.8,286046999.3,N
1568006275.7,286046997.5,N
1568006295.5,286046995.0,Y
1568006315.3,286047002.0,P
1568006335.2,286047002.5,N
1568006355.0,286047003.5,N
1568006355.9,286047003.5,N
1568006375.8,286047003.5,N
1568006395.6,286047005.7,N
1568006415.4,286047001.9,N
1568006435.3,286047001.2,N
1568006455.1,286046996.7,N
1568006475.8,286046994.6,N
1568006495.7,286046990.6,N
1568006515.5,286046993.0,N
1568006535.4,286046992.5,N
1568006555.2,286046993.0,N
1568006575.0,286046990.2,N
1568006575.9,286046990.2,N
1568006595.8,286046992.9,N
1568006615.6,286046990.2,N
1568006635.4,286046990.6,N
1568006655.3,286046990.5,N
1568006675.1,286046993.0,N
1568006695.9,286046993.0,N
1568006715.7,286046992.3,N
1568006735.5,286046993.8,N
1568006755.4,286046992.2,N
1568006775.2,286046993.1,N
1568006795.0,286046990.9,N
1568006795.9,286046990.9,N
1568006815.8,286046990.3,N
1568006835.6,286046992.8,N
1568006855.5,286046992.6,N
1568006875.3,286046994.1,N
1568006895.1,286046992.2,N
1568006915.9,286046992.4,N
1568006935.7,286046992.8,N
1568006955.5,286046990.2,N
1568006975.4,286046990.9,Y
1568006995.2,286046997.4,P
1568007015.1,286046996.7,N
1568007016.0,286046996.7,N
1568007035.8,286046999.6,N
1568007055.6,286046998.9,N
1568007075.5,286046996.6,N
1568007095.3,286046997.1,N
1568007115.1,286046997.7,N
1568007135.9,286046994.9,N
1568007155.7,286046995.0,N
1568007175.6,286046997.7,N
1568007195.4,286046994.3,Y
1568007215.2,286046993.7,P
1568007235.1,286046994.1,P
1568007236.0,286046994.1,P
1568007255.8,286046996.4,N
1568007275.6,286046995.9,Y
1568007295.5,286047002.3,P
1568007315.3,286047000.5,N
1568007335.2,286047000.0,N
1568007355.9,286047000.3,N
1568007375.7,286047000.6,N
1568007395.6,286046998.8,N
1568007415.4,286046997.1,N
1568007435.2,286046997.1,N
1568007455.1,286046995.4,N
1568007456.0,286046995.4,N
1568007475.8,286046996.0,N
1568007495.7,286046997.5,N
1568007515.5,286046996.0,N
1568007535.3,286046993.8,N
1568007555.2,286046994.0,N
1568007575.0,286046994.1,N
1568007575.9,286046994.1,N
1568007595.7,286046994.5,N
1568007615.6,286046992.6,N
1568007635.4,286046993.2,N
1568007655.3,286046992.6,N
1568007675.1,286046992.3,N
1568007676.0,286046992.3,N
1568007695.8,286046992.5,N
1568007715.7,286046990.2,Y
1568007735.5,286046995.6,P
1568007755.4,286046993.7,P
1568007775.2,286046994.8,P
1568007795.0,286046992.4,Y
1568007795.9,286046992.4,P
1568007815.8,286046997.4,N
1568007835.6,286046997.1,N
1568007855.4,286046997.6,N
1568007875.3,286046996.5,N
1568007895.1,286046997.7,N
1568007915.9,286046997.5,N
1568007935.7,286046995.5,N
1568007955.5,286046996.0,N
1568007975.4,286046995.1,Y
1568007995.2,286046998.5,P
1568008015.1,286046998.3,N
1568008016.0,286046998.3,N
1568008035.8,286046997.7,N
1568008055.6,286046997.4,Y
1568008075.5,286046999.2,P
1568008095.3,286046999.5,N
1568008115.2,286046997.2,P
1568008135.9,286046995.8,Y
1568008155.7,286046996.2,P
1568008175.6,286046995.8,P
1568008195.4,286046996.6,N
1568008215.3,286046996.9,Y
1568008235.1,286047000.4,P
1568008236.0,286047000.4,N
1568008255.8,286047000.6,N
1568008275.7,286046998.5,N
1568008295.5,286046998.8,N
1568008315.3,286046999.5,N
1568008335.2,286046996.7,N
1568008355.0,286046999.4,N
1568008355.9,286046999.4,N
1568008375.8,286047000.9,N
1568008395.6,286047001.2,N
1568008415.4,286046998.2,N
1568008435.3,286047001.2,N
1568008455.1,286046999.1,N
1568008475.8,286046997.0,N
1568008495.7,286046997.4,N
1568008515.5,286046997.6,N
1568008535.4,286046994.9,Y
1568008555.2,286046997.3,P
1568008575.0,286046997.0,P
1568008575.9,286046997.0,P
1568008595.8,286046999.1,N
1568008615.6,286046999.4,N
1568008635.5,286046999.6,N
1568008655.3,286046997.1,N
1568008675.1,286046998.7,N
1568008695.9,286047000.9,N
1568008715.7,286046998.5,N
1568008735.6,286046999.4,N
1568008755.4,286046996.9,N
1568008775.2,286046997.2,N
1568008795.1,286046997.6,N
1568008796.0,286046997.6,N
